Time,TemperatureF,DewpointF,PressureIn,WindDirection,WindDirectionDegrees,WindSpeedMPH,WindSpeedGustMPH,Humidity,HourlyPrecipIn,Conditions,Clouds,dailyrainin,SolarRadiationWatts/m^2,SoftwareType,DateUTC
2013-08-15 00:02:00,62.6,53.5,30.18,East,83,0.0,0.0,72,0.00,,CLR,0.00,0.00,VWS V14.01,2013-08-15 05:02:00,
2013-08-15 00:07:00,62.7,53.2,30.18,East,83,0.0,0.0,71,0.00,,CLR,0.00,0.00,VWS V14.01,2013-08-15 05:07:00,
2013-08-15 00:12:00,62.8,53.7,30.18,East,83,0.0,2.0,72,0.00,,CLR,0.00,0.00,VWS V14.01,2013-08-15 05:12:00,
2013-08-15 00:17:00,62.8,53.7,30.18,East,83,0.0,1.0,72,0.00,,CLR,0.00,0.00,VWS V14.01,2013-08-15 05:17:00,
2013-08-15 00:22:00,62.7,53.9,30.18,East,83,0.0,1.0,73,0.00,,CLR,0.00,0.00,VWS V14.01,2013-08-15 05:22:00,
2013-08-15 00:27:00,62.6,53.8,30.18,East,83,0.0,0.0,73,0.00,,CLR,0.00,0.00,VWS V14.01,2013-08-15 05:27:00,
2013-08-15 00:32:00,62.6,53.5,30.18,East,83,0.0,1.0,72,0.00,,CLR,0.00,0.00,VWS V14.01,2013-08-15 05:32:00,
2013-08-15 00:37:00,62.7,53.5,30.18,East,83,1.0,1.0,72,0.00,,CLR,0.00,0.00,VWS V14.01,2013-08-15 05:37:00,
2013-08-15 00:42:00,62.5,53.4,30.18,East,83,0.0,1.0,72,0.00,,CLR,0.00,0.00,VWS V14.01,2013-08-15 05:42:00,
2013-08-15 00:47:00,62.5,53.4,30.18,East,83,0.0,1.0,72,0.00,,CLR,0.00,0.00,VWS V14.01,2013-08-15 05:47:00,
2013-08-15 00:52:00,62.5,53.7,30.18,East,83,2.0,3.0,73,0.00,,CLR,0.00,0.00,VWS V14.01,2013-08-15 05:52:00,
2013-08-15 00:57:00,62.5,53.7,30.18,East,83,0.0,3.0,73,0.00,,CLR,0.00,0.00,VWS V14.01,2013-08-15 05:57:00,
2013-08-15 01:02:00,62.6,53.8,30.18,East,83,0.0,1.0,73,0.00,,CLR,0.00,0.00,VWS V14.01,2013-08-15 06:02:00,
2013-08-15 01:07:00,62.7,53.9,30.18,East,83,0.0,3.0,73,0.00,,CLR,0.00,0.00,VWS V14.01,2013-08-15 06:07:00,
2013-08-15 01:12:00,62.9,54.1,30.17,East,83,0.0,1.0,73,0.00,,CLR,0.00,0.00,VWS V14.01,2013-08-15 06:12:00,
2013-08-15 01:17:00,62.9,54.1,30.17,East,83,0.0,2.0,73,0.00,,CLR,0.00,0.00,VWS V14.01,2013-08-15 06:17:00,
2013-08-15 01:22:00,63.1,54.3,30.18,East,83,0.0,1.0,73,0.00,,CLR,0.00,0.00,VWS V14.01,2013-08-15 06:22:00,
2013-08-15 01:27:00,63.2,54.4,30.18,East,83,1.0,4.0,73,0.00,,CLR,0.00,0.00,VWS V14.01,2013-08-15 06:27:00,
2013-08-15 01:32:00,63.2,54.4,30.18,East,84,1.0,3.0,73,0.00,,CLR,0.00,0.00,VWS V14.01,2013-08-15 06:32:00,
2013-08-15 01:37:00,63.3,54.9,30.17,East,84,0.0,3.0,74,0.00,,CLR,0.00,0.00,VWS V14.01,2013-08-15 06:37:00,
2013-08-15 01:42:00,63.4,54.6,30.17,SSE,160,4.0,4.0,73,0.00,,CLR,0.00,0.00,VWS V14.01,2013-08-15 06:42:00,
2013-08-15 01:47:00,63.5,54.7,30.18,SSE,160,1.0,3.0,73,0.00,,CLR,0.00,0.00,VWS V14.01,2013-08-15 06:47:00,
2013-08-15 01:52:00,63.7,54.9,30.18,South,175,4.0,7.0,73,0.00,,CLR,0.00,0.00,VWS V14.01,2013-08-15 06:52:00,
2013-08-15 01:57:00,64.0,54.8,30.18,South,175,3.0,6.0,72,0.00,,CLR,0.00,0.00,VWS V14.01,2013-08-15 06:57:00,
2013-08-15 02:02:00,64.0,54.4,30.17,South,170,4.0,4.0,71,0.00,,CLR,0.00,0.00,VWS V14.01,2013-08-15 07:02:00,
2013-08-15 02:07:00,64.0,54.4,30.17,SSE,168,2.0,4.0,71,0.00,,CLR,0.00,0.00,VWS V14.01,2013-08-15 07:07:00,
2013-08-15 02:12:00,64.0,54.4,30.17,South,173,2.0,3.0,71,0.00,,CLR,0.00,0.00,VWS V14.01,2013-08-15 07:12:00,
2013-08-15 02:17:00,64.1,54.1,30.17,South,172,3.0,4.0,70,0.00,,CLR,0.00,0.00,VWS V14.01,2013-08-15 07:17:00,
2013-08-15 02:22:00,64.2,54.2,30.17,South,178,1.0,4.0,70,0.00,,CLR,0.00,0.00,VWS V14.01,2013-08-15 07:22:00,
2013-08-15 02:27:00,64.3,53.9,30.17,South,177,4.0,5.0,69,0.00,,CLR,0.00,0.00,VWS V14.01,2013-08-15 07:27:00,
2013-08-15 02:32:00,64.4,54.0,30.17,SSE,167,2.0,4.0,69,0.00,,CLR,0.00,0.00,VWS V14.01,2013-08-15 07:32:00,
2013-08-15 02:37:00,64.6,53.8,30.17,SSE,153,3.0,6.0,68,0.00,,CLR,0.00,0.00,VWS V14.01,2013-08-15 07:37:00,
2013-08-15 02:43:00,64.8,53.6,30.17,South,170,4.0,5.0,67,0.00,,CLR,0.00,0.00,VWS V14.01,2013-08-15 07:43:00,
2013-08-15 02:48:00,64.9,53.7,30.17,South,179,3.0,4.0,67,0.00,,CLR,0.00,0.00,VWS V14.01,2013-08-15 07:48:00,
2013-08-15 02:53:00,64.8,53.6,30.18,South,178,4.0,6.0,67,0.00,,CLR,0.00,0.00,VWS V14.01,2013-08-15 07:53:00,
2013-08-15 02:58:00,64.8,53.6,30.17,SSE,162,1.0,4.0,67,0.00,,CLR,0.00,0.00,VWS V14.01,2013-08-15 07:58:00,
2013-08-15 03:03:00,64.6,53.8,30.17,SSE,162,1.0,3.0,68,0.00,,CLR,0.00,0.00,VWS V14.01,2013-08-15 08:03:00,
2013-08-15 03:08:00,64.4,54.0,30.17,SSE,162,3.0,4.0,69,0.00,,CLR,0.00,0.00,VWS V14.01,2013-08-15 08:08:00,
2013-08-15 03:13:00,64.4,53.6,30.17,SSE,155,2.0,3.0,68,0.00,,CLR,0.00,0.00,VWS V14.01,2013-08-15 08:13:00,
2013-08-15 03:18:00,64.3,53.9,30.18,SSE,155,3.0,3.0,69,0.00,,CLR,0.00,0.00,VWS V14.01,2013-08-15 08:18:00,
2013-08-15 03:23:00,64.2,54.2,30.17,SSE,164,3.0,3.0,70,0.00,,CLR,0.00,0.00,VWS V14.01,2013-08-15 08:23:00,
2013-08-15 03:28:00,64.1,54.5,30.17,SSE,161,3.0,3.0,71,0.00,,CLR,0.00,0.00,VWS V14.01,2013-08-15 08:28:00,
2013-08-15 03:33:00,64.0,54.8,30.17,South,180,5.0,7.0,72,0.00,,CLR,0.00,0.00,VWS V14.01,2013-08-15 08:33:00,
2013-08-15 03:38:00,64.0,54.4,30.17,South,183,3.0,6.0,71,0.00,,CLR,0.00,0.00,VWS V14.01,2013-08-15 08:38:00,
2013-08-15 03:43:00,64.0,54.4,30.17,South,187,3.0,5.0,71,0.00,,CLR,0.00,0.00,VWS V14.01,2013-08-15 08:43:00,
2013-08-15 03:48:00,64.1,54.5,30.17,South,179,4.0,5.0,71,0.00,,CLR,0.00,0.00,VWS V14.01,2013-08-15 08:48:00,
2013-08-15 03:53:00,64.0,54.4,30.16,South,170,4.0,6.0,71,0.00,,CLR,0.00,0.00,VWS V14.01,2013-08-15 08:53:00,
2013-08-15 03:58:00,64.0,54.8,30.17,South,176,1.0,5.0,72,0.00,,CLR,0.00,0.00,VWS V14.01,2013-08-15 08:58:00,
2013-08-15 04:03:00,63.8,54.6,30.16,South,176,2.0,3.0,72,0.00,,CLR,0.00,0.00,VWS V14.01,2013-08-15 09:03:00,
2013-08-15 04:08:00,63.7,54.5,30.16,SSE,147,2.0,3.0,72,0.00,,CLR,0.00,0.00,VWS V14.01,2013-08-15 09:08:00,
2013-08-15 04:13:00,63.5,54.3,30.16,South,172,3.0,4.0,72,0.00,,CLR,0.00,0.00,VWS V14.01,2013-08-15 09:13:00,
2013-08-15 04:18:00,63.5,54.3,30.16,SSE,151,2.0,3.0,72,0.00,,CLR,0.00,0.00,VWS V14.01,2013-08-15 09:18:00,
2013-08-15 04:23:00,63.4,54.2,30.16,SSE,154,1.0,1.0,72,0.00,,CLR,0.00,0.00,VWS V14.01,2013-08-15 09:23:00,
2013-08-15 04:28:00,63.4,54.2,30.16,SSE,149,3.0,4.0,72,0.00,,CLR,0.00,0.00,VWS V14.01,2013-08-15 09:28:00,
2013-08-15 04:33:00,63.3,54.1,30.16,SSE,149,3.0,3.0,72,0.00,,CLR,0.00,0.00,VWS V14.01,2013-08-15 09:33:00,
2013-08-15 04:38:00,63.1,54.3,30.16,SSE,155,2.0,4.0,73,0.00,,CLR,0.00,0.00,VWS V14.01,2013-08-15 09:38:00,
2013-08-15 04:43:00,63.0,54.2,30.16,SSE,155,0.0,3.0,73,0.00,,CLR,0.00,0.00,VWS V14.01,2013-08-15 09:43:00,
2013-08-15 04:48:00,62.7,54.3,30.16,SSE,155,2.0,4.0,74,0.00,,CLR,0.00,0.00,VWS V14.01,2013-08-15 09:48:00,
2013-08-15 04:53:00,62.7,54.3,30.16,South,170,1.0,3.0,74,0.00,,SCT100,0.00,0.00,VWS V14.01,2013-08-15 09:53:00,
2013-08-15 04:58:00,62.6,54.2,30.16,South,170,0.0,3.0,74,0.00,,SCT100,0.00,0.00,VWS V14.01,2013-08-15 09:58:00,
2013-08-15 05:03:00,62.5,54.5,30.17,South,170,2.0,3.0,75,0.00,,SCT100,0.00,0.00,VWS V14.01,2013-08-15 10:03:00,
2013-08-15 05:08:00,62.4,54.4,30.17,South,170,1.0,2.0,75,0.00,,SCT100,0.00,0.00,VWS V14.01,2013-08-15 10:08:00,
2013-08-15 05:13:00,62.5,54.5,30.17,South,170,1.0,3.0,75,0.00,,SCT100,0.00,0.00,VWS V14.01,2013-08-15 10:13:00,
2013-08-15 05:18:00,62.7,54.7,30.17,South,170,1.0,1.0,75,0.00,,SCT100,0.00,0.00,VWS V14.01,2013-08-15 10:18:00,
2013-08-15 05:23:00,62.8,54.8,30.17,South,170,1.0,3.0,75,0.00,,SCT100,0.00,0.00,VWS V14.01,2013-08-15 10:23:00,
2013-08-15 05:28:00,62.8,54.8,30.17,South,170,0.0,2.0,75,0.00,,SCT100,0.00,0.00,VWS V14.01,2013-08-15 10:28:00,
2013-08-15 05:33:00,62.7,55.0,30.17,South,170,0.0,0.0,76,0.00,,SCT100,0.00,0.00,VWS V14.01,2013-08-15 10:33:00,
2013-08-15 05:38:00,62.7,54.7,30.17,South,170,1.0,1.0,75,0.00,,SCT100,0.00,0.00,VWS V14.01,2013-08-15 10:38:00,
2013-08-15 05:44:00,62.6,54.6,30.17,South,170,0.0,0.0,75,0.00,,SCT100,0.00,0.00,VWS V14.01,2013-08-15 10:44:00,
2013-08-15 05:49:00,62.6,54.6,30.17,South,170,0.0,1.0,75,0.00,,SCT100,0.00,0.00,VWS V14.01,2013-08-15 10:49:00,
2013-08-15 05:54:00,62.8,54.8,30.17,South,170,0.0,1.0,75,0.00,,SCT100,0.00,0.00,VWS V14.01,2013-08-15 10:54:00,
2013-08-15 05:59:00,62.9,54.9,30.17,South,170,0.0,1.0,75,0.00,,SCT100,0.00,0.00,VWS V14.01,2013-08-15 10:59:00,
2013-08-15 06:04:00,62.9,54.9,30.17,South,183,0.0,4.0,75,0.00,,SCT100,0.00,0.00,VWS V14.01,2013-08-15 11:04:00,
2013-08-15 06:09:00,62.9,54.9,30.17,South,183,0.0,0.0,75,0.00,,SCT100,0.00,0.00,VWS V14.01,2013-08-15 11:09:00,
2013-08-15 06:14:00,62.8,54.8,30.17,SW,224,3.0,3.0,75,0.00,,SCT100,0.00,0.00,VWS V14.01,2013-08-15 11:14:00,
2013-08-15 06:19:00,63.1,54.7,30.17,SSW,201,3.0,4.0,74,0.00,,SCT100,0.00,0.00,VWS V14.01,2013-08-15 11:19:00,
2013-08-15 06:24:00,63.4,54.6,30.17,SW,218,5.0,6.0,73,0.00,,SCT100,0.00,0.00,VWS V14.01,2013-08-15 11:24:00,
2013-08-15 06:29:00,63.5,54.3,30.17,SSW,207,4.0,6.0,72,0.00,,SCT100,0.00,7.00,VWS V14.01,2013-08-15 11:29:00,
2013-08-15 06:34:00,63.7,54.5,30.18,SW,217,4.0,7.0,72,0.00,,SCT100,0.00,12.00,VWS V14.01,2013-08-15 11:34:00,
2013-08-15 06:39:00,63.8,54.2,30.17,SW,218,5.0,5.0,71,0.00,,SCT100,0.00,19.00,VWS V14.01,2013-08-15 11:39:00,
2013-08-15 06:44:00,63.9,54.7,30.18,South,183,5.0,6.0,72,0.00,,SCT100,0.00,25.00,VWS V14.01,2013-08-15 11:44:00,
2013-08-15 06:49:00,63.9,54.7,30.18,SW,220,5.0,9.0,72,0.00,,SCT100,0.00,33.00,VWS V14.01,2013-08-15 11:49:00,
2013-08-15 06:54:00,64.0,54.8,30.18,SW,224,4.0,7.0,72,0.00,,SCT100,0.00,44.00,VWS V14.01,2013-08-15 11:54:00,
2013-08-15 06:59:00,64.1,54.9,30.18,SW,217,4.0,7.0,72,0.00,,SCT100,0.00,49.00,VWS V14.01,2013-08-15 11:59:00,
2013-08-15 07:04:00,64.0,54.8,30.18,SW,236,3.0,4.0,72,0.00,,SCT100,0.00,53.00,VWS V14.01,2013-08-15 12:04:00,
2013-08-15 07:09:00,64.0,55.6,30.18,SW,223,0.0,1.0,74,0.00,,SCT100,0.00,54.00,VWS V14.01,2013-08-15 12:09:00,
2013-08-15 07:14:00,63.9,55.8,30.18,South,181,1.0,4.0,75,0.00,,SCT100,0.00,51.00,VWS V14.01,2013-08-15 12:14:00,
2013-08-15 07:19:00,63.8,55.7,30.18,South,184,1.0,3.0,75,0.00,,SCT100,0.00,44.00,VWS V14.01,2013-08-15 12:19:00,
2013-08-15 07:24:00,63.7,55.6,30.18,South,177,3.0,5.0,75,0.00,,SCT100,0.00,42.00,VWS V14.01,2013-08-15 12:24:00,
2013-08-15 07:29:00,63.6,55.5,30.18,SSW,195,4.0,5.0,75,0.00,,SCT100,0.00,42.00,VWS V14.01,2013-08-15 12:29:00,
2013-08-15 07:34:00,63.7,56.0,30.18,SSW,194,2.0,5.0,76,0.00,,SCT100,0.00,44.00,VWS V14.01,2013-08-15 12:34:00,
2013-08-15 07:39:00,63.5,55.8,30.18,South,183,3.0,4.0,76,0.00,,SCT100,0.00,49.00,VWS V14.01,2013-08-15 12:39:00,
2013-08-15 07:44:00,63.4,55.7,30.18,South,189,2.0,5.0,76,0.00,,SCT100,0.00,58.00,VWS V14.01,2013-08-15 12:44:00,
2013-08-15 07:49:00,63.6,55.9,30.19,South,188,3.0,4.0,76,0.00,,SCT100,0.00,62.00,VWS V14.01,2013-08-15 12:49:00,
2013-08-15 07:54:00,63.7,56.4,30.19,South,188,2.0,3.0,77,0.00,,SCT060,0.00,60.00,VWS V14.01,2013-08-15 12:54:00,
2013-08-15 07:59:00,63.8,56.1,30.19,South,188,2.0,3.0,76,0.00,,SCT060,0.00,56.00,VWS V14.01,2013-08-15 12:59:00,
2013-08-15 08:04:00,63.9,55.8,30.19,SSW,212,4.0,5.0,75,0.00,,SCT060,0.00,56.00,VWS V14.01,2013-08-15 13:04:00,
2013-08-15 08:09:00,64.0,55.9,30.19,SW,221,4.0,4.0,75,0.00,,SCT060,0.00,63.00,VWS V14.01,2013-08-15 13:09:00,
2013-08-15 08:14:00,64.1,56.0,30.19,SSW,205,3.0,4.0,75,0.00,,SCT060,0.00,74.00,VWS V14.01,2013-08-15 13:14:00,
2013-08-15 08:19:00,64.1,55.7,30.19,SSW,200,5.0,6.0,74,0.00,,SCT060,0.00,90.00,VWS V14.01,2013-08-15 13:19:00,
2013-08-15 08:24:00,64.3,55.8,30.19,SSW,206,5.0,5.0,74,0.00,,SCT060,0.00,113.00,VWS V14.01,2013-08-15 13:24:00,
2013-08-15 08:29:00,64.5,56.0,30.19,SSW,201,4.0,4.0,74,0.00,,SCT060,0.00,144.00,VWS V14.01,2013-08-15 13:29:00,
2013-08-15 08:34:00,64.9,56.4,30.19,SSW,206,4.0,4.0,74,0.00,,SCT060,0.00,171.00,VWS V14.01,2013-08-15 13:34:00,
2013-08-15 08:39:00,65.1,55.9,30.19,SSW,212,4.0,4.0,72,0.00,,SCT060,0.00,171.00,VWS V14.01,2013-08-15 13:39:00,
2013-08-15 08:44:00,65.2,56.0,30.19,SW,221,3.0,4.0,72,0.00,,SCT060,0.00,174.00,VWS V14.01,2013-08-15 13:44:00,
2013-08-15 08:49:00,65.3,56.4,30.19,SW,216,3.0,5.0,73,0.00,,SCT060,0.00,163.00,VWS V14.01,2013-08-15 13:49:00,
2013-08-15 08:55:00,65.2,55.6,30.19,WSW,253,2.0,5.0,71,0.00,,CLR,0.00,163.00,VWS V14.01,2013-08-15 13:55:00,
2013-08-15 09:00:00,65.0,55.4,30.19,WSW,239,4.0,5.0,71,0.00,,CLR,0.00,179.00,VWS V14.01,2013-08-15 14:00:00,
2013-08-15 09:05:00,65.2,55.6,30.19,WSW,255,4.0,6.0,71,0.00,,CLR,0.00,56.00,VWS V14.01,2013-08-15 14:05:00,
2013-08-15 09:10:00,65.4,55.8,30.19,SW,234,6.0,7.0,71,0.00,,CLR,0.00,260.00,VWS V14.01,2013-08-15 14:10:00,
2013-08-15 09:15:00,65.6,55.2,30.19,West,262,4.0,10.0,69,0.00,,CLR,0.00,302.00,VWS V14.01,2013-08-15 14:15:00,
2013-08-15 09:20:00,66.1,55.7,30.19,WSW,239,7.0,10.0,69,0.00,,CLR,0.00,297.00,VWS V14.01,2013-08-15 14:20:00,
2013-08-15 09:25:00,66.1,55.7,30.19,WSW,247,3.0,4.0,69,0.00,,CLR,0.00,258.00,VWS V14.01,2013-08-15 14:25:00,
2013-08-15 09:30:00,66.1,55.7,30.19,SW,228,7.0,7.0,69,0.00,,CLR,0.00,229.00,VWS V14.01,2013-08-15 14:30:00,
2013-08-15 09:35:00,66.0,55.5,30.19,SW,229,1.0,5.0,69,0.00,,CLR,0.00,225.00,VWS V14.01,2013-08-15 14:35:00,
2013-08-15 09:40:00,65.7,54.9,30.19,WSW,253,6.0,7.0,68,0.00,,CLR,0.00,223.00,VWS V14.01,2013-08-15 14:40:00,
2013-08-15 09:45:00,65.7,55.3,30.19,SW,226,7.0,9.0,69,0.00,,CLR,0.00,220.00,VWS V14.01,2013-08-15 14:45:00,
2013-08-15 09:51:00,65.8,55.4,30.19,SW,236,6.0,9.0,69,0.00,,CLR,0.00,253.00,VWS V14.01,2013-08-15 14:51:00,
2013-08-15 09:56:00,66.1,56.0,30.19,SSW,212,7.0,7.0,70,0.00,,CLR,0.00,295.00,VWS V14.01,2013-08-15 14:56:00,
2013-08-15 10:01:00,66.3,55.8,30.19,SW,227,6.0,6.0,69,0.00,,SCT060,0.00,294.00,VWS V14.01,2013-08-15 15:01:00,
2013-08-15 10:06:00,66.3,55.8,30.19,SW,235,7.0,7.0,69,0.00,,SCT060,0.00,281.00,VWS V14.01,2013-08-15 15:06:00,
2013-08-15 10:11:00,66.4,56.3,30.19,SW,229,5.0,10.0,70,0.00,,SCT060,0.00,269.00,VWS V14.01,2013-08-15 15:11:00,
2013-08-15 10:16:00,66.4,55.9,30.19,WSW,240,7.0,7.0,69,0.00,,SCT060,0.00,246.00,VWS V14.01,2013-08-15 15:16:00,
2013-08-15 10:21:00,66.3,56.2,30.19,SW,222,6.0,9.0,70,0.00,,SCT060,0.00,230.00,VWS V14.01,2013-08-15 15:21:00,
2013-08-15 10:26:00,66.2,56.1,30.19,WSW,248,6.0,6.0,70,0.00,,SCT060,0.00,218.00,VWS V14.01,2013-08-15 15:26:00,
2013-08-15 10:31:00,66.1,55.7,30.19,SW,225,6.0,7.0,69,0.00,,SCT060,0.00,223.00,VWS V14.01,2013-08-15 15:31:00,
2013-08-15 10:36:00,66.0,56.0,30.19,WSW,251,5.0,8.0,70,0.00,,SCT060,0.00,239.00,VWS V14.01,2013-08-15 15:36:00,
2013-08-15 10:41:00,65.8,55.8,30.19,SW,234,7.0,8.0,70,0.00,,SCT060,0.00,253.00,VWS V14.01,2013-08-15 15:41:00,
2013-08-15 10:46:00,66.0,56.3,30.19,SW,234,7.0,7.0,71,0.00,,SCT060,0.00,283.00,VWS V14.01,2013-08-15 15:46:00,
2013-08-15 10:51:00,66.4,56.7,30.19,WSW,240,4.0,6.0,71,0.00,,CLR,0.00,309.00,VWS V14.01,2013-08-15 15:51:00,
2013-08-15 10:56:00,66.4,56.3,30.19,SW,233,6.0,6.0,70,0.00,,CLR,0.00,330.00,VWS V14.01,2013-08-15 15:56:00,
2013-08-15 11:01:00,66.6,56.5,30.19,SW,224,4.0,6.0,70,0.00,,CLR,0.00,343.00,VWS V14.01,2013-08-15 16:01:00,
2013-08-15 11:06:00,66.6,57.3,30.19,SSW,211,5.0,6.0,72,0.00,,CLR,0.00,355.00,VWS V14.01,2013-08-15 16:06:00,
2013-08-15 11:12:00,66.9,57.6,30.19,SW,215,5.0,5.0,72,0.00,,CLR,0.00,311.00,VWS V14.01,2013-08-15 16:12:00,
2013-08-15 11:17:00,66.9,56.4,30.19,West,261,3.0,5.0,69,0.00,,CLR,0.00,304.00,VWS V14.01,2013-08-15 16:17:00,
2013-08-15 11:22:00,66.3,56.6,30.19,WSW,245,5.0,7.0,71,0.00,,CLR,0.00,308.00,VWS V14.01,2013-08-15 16:22:00,
2013-08-15 11:27:00,66.6,56.9,30.19,SW,216,6.0,9.0,71,0.00,,CLR,0.00,295.00,VWS V14.01,2013-08-15 16:27:00,
2013-08-15 11:32:00,67.0,57.3,30.19,SW,220,4.0,7.0,71,0.00,,CLR,0.00,281.00,VWS V14.01,2013-08-15 16:32:00,
2013-08-15 11:37:00,66.8,56.7,30.19,WSW,250,9.0,9.0,70,0.00,,CLR,0.00,292.00,VWS V14.01,2013-08-15 16:37:00,
2013-08-15 11:42:00,66.2,56.5,30.19,WSW,244,3.0,5.0,71,0.00,,CLR,0.00,306.00,VWS V14.01,2013-08-15 16:42:00,
2013-08-15 11:47:00,66.6,56.5,30.19,SW,232,4.0,7.0,70,0.00,,CLR,0.00,397.00,VWS V14.01,2013-08-15 16:47:00,
2013-08-15 11:52:00,66.6,56.5,30.19,WSW,249,5.0,5.0,70,0.00,,CLR,0.00,388.00,VWS V14.01,2013-08-15 16:52:00,
2013-08-15 11:57:00,67.1,57.0,30.19,SW,227,8.0,12.0,70,0.00,,CLR,0.00,350.00,VWS V14.01,2013-08-15 16:57:00,
2013-08-15 12:02:00,67.3,57.2,30.19,WSW,243,4.0,6.0,70,0.00,,CLR,0.00,404.00,VWS V14.01,2013-08-15 17:02:00,
2013-08-15 12:07:00,67.3,57.2,30.19,WSW,249,4.0,6.0,70,0.00,,CLR,0.00,564.00,VWS V14.01,2013-08-15 17:07:00,
2013-08-15 12:12:00,67.8,57.7,30.19,WSW,241,7.0,9.0,70,0.00,,CLR,0.00,513.00,VWS V14.01,2013-08-15 17:12:00,
2013-08-15 12:17:00,67.6,56.7,30.19,WSW,239,6.0,7.0,68,0.00,,CLR,0.00,492.00,VWS V14.01,2013-08-15 17:17:00,
2013-08-15 12:23:00,68.4,57.4,30.19,SW,225,9.0,12.0,68,0.00,,CLR,0.00,475.00,VWS V14.01,2013-08-15 17:23:00,
2013-08-15 12:28:00,67.9,57.0,30.19,WSW,249,9.0,10.0,68,0.00,,CLR,0.00,381.00,VWS V14.01,2013-08-15 17:28:00,
2013-08-15 12:33:00,67.7,58.0,30.19,WSW,241,6.0,9.0,71,0.00,,CLR,0.00,482.00,VWS V14.01,2013-08-15 17:33:00,
2013-08-15 12:38:00,68.2,58.0,30.19,WSW,244,6.0,11.0,70,0.00,,CLR,0.00,726.00,VWS V14.01,2013-08-15 17:38:00,
2013-08-15 12:43:00,68.5,57.9,30.18,WSW,248,4.0,8.0,69,0.00,,CLR,0.00,684.00,VWS V14.01,2013-08-15 17:43:00,
2013-08-15 12:48:00,68.6,58.4,30.18,West,268,2.0,6.0,70,0.00,,CLR,0.00,624.00,VWS V14.01,2013-08-15 17:48:00,
2013-08-15 12:53:00,67.9,57.8,30.18,West,265,3.0,4.0,70,0.00,,CLR,0.00,406.00,VWS V14.01,2013-08-15 17:53:00,
2013-08-15 12:58:00,68.2,57.7,30.18,SW,236,8.0,10.0,69,0.00,,CLR,0.00,561.00,VWS V14.01,2013-08-15 17:58:00,
2013-08-15 13:03:00,67.9,58.2,30.18,NW,304,6.0,9.0,71,0.00,,CLR,0.00,501.00,VWS V14.01,2013-08-15 18:03:00,
2013-08-15 13:08:00,68.2,58.0,30.18,WSW,241,10.0,10.0,70,0.00,,CLR,0.00,650.00,VWS V14.01,2013-08-15 18:08:00,
2013-08-15 13:14:00,68.6,59.2,30.18,WNW,295,3.0,4.0,72,0.00,,CLR,0.00,478.00,VWS V14.01,2013-08-15 18:14:00,
2013-08-15 13:19:00,68.8,58.2,30.18,WNW,293,1.0,7.0,69,0.00,,CLR,0.00,541.00,VWS V14.01,2013-08-15 18:19:00,
2013-08-15 13:24:00,68.8,57.8,30.18,SSW,210,4.0,11.0,68,0.00,,CLR,0.00,541.00,VWS V14.01,2013-08-15 18:24:00,
2013-08-15 13:29:00,68.8,58.2,30.18,SW,218,12.0,14.0,69,0.00,,CLR,0.00,675.00,VWS V14.01,2013-08-15 18:29:00,
2013-08-15 13:34:00,69.0,56.3,30.17,West,259,4.0,9.0,64,0.00,,CLR,0.00,784.00,VWS V14.01,2013-08-15 18:34:00,
2013-08-15 13:39:00,68.8,58.2,30.17,WSW,249,6.0,12.0,69,0.00,,CLR,0.00,621.00,VWS V14.01,2013-08-15 18:39:00,
2013-08-15 13:44:00,69.1,57.7,30.18,West,262,6.0,9.0,67,0.00,,CLR,0.00,557.00,VWS V14.01,2013-08-15 18:44:00,
2013-08-15 13:49:00,69.0,57.6,30.18,WSW,241,5.0,7.0,67,0.00,,CLR,0.00,619.00,VWS V14.01,2013-08-15 18:49:00,
2013-08-15 13:54:00,69.3,58.3,30.17,WSW,241,6.0,10.0,68,0.00,,SCT028,0.00,573.00,VWS V14.01,2013-08-15 18:54:00,
2013-08-15 13:59:00,70.0,58.5,30.17,West,268,6.0,9.0,67,0.00,,SCT028,0.00,930.00,VWS V14.01,2013-08-15 18:59:00,
2013-08-15 14:04:00,70.4,58.1,30.17,SW,233,6.0,10.0,65,0.00,,SCT028,0.00,976.00,VWS V14.01,2013-08-15 19:04:00,
2013-08-15 14:09:00,71.5,58.7,30.17,SW,236,9.0,13.0,64,0.00,,SCT028,0.00,953.00,VWS V14.01,2013-08-15 19:09:00,
2013-08-15 14:14:00,71.0,58.7,30.17,SW,234,7.0,9.0,65,0.00,,SCT028,0.00,914.00,VWS V14.01,2013-08-15 19:14:00,
2013-08-15 14:19:00,71.6,59.7,30.17,SSW,211,7.0,10.0,66,0.00,,SCT028,0.00,905.00,VWS V14.01,2013-08-15 19:19:00,
2013-08-15 14:25:00,71.8,59.0,30.17,SW,220,8.0,13.0,64,0.00,,SCT028,0.00,714.00,VWS V14.01,2013-08-15 19:25:00,
2013-08-15 14:30:00,71.6,59.7,30.17,SSW,205,1.0,5.0,66,0.00,,SCT028,0.00,540.00,VWS V14.01,2013-08-15 19:30:00,
2013-08-15 14:35:00,71.3,58.9,30.16,SW,233,6.0,9.0,65,0.00,,SCT028,0.00,360.00,VWS V14.01,2013-08-15 19:35:00,
2013-08-15 14:40:00,70.3,58.4,30.16,SSW,206,6.0,10.0,66,0.00,,SCT028,0.00,476.00,VWS V14.01,2013-08-15 19:40:00,
2013-08-15 14:45:00,69.9,58.0,30.16,WSW,244,3.0,6.0,66,0.00,,SCT028,0.00,339.00,VWS V14.01,2013-08-15 19:45:00,
2013-08-15 14:50:00,69.6,58.2,30.16,SW,218,6.0,9.0,67,0.00,,BKN050,0.00,329.00,VWS V14.01,2013-08-15 19:50:00,
2013-08-15 14:56:00,69.4,58.4,30.16,SSW,197,6.0,6.0,68,0.00,,BKN050,0.00,253.00,VWS V14.01,2013-08-15 19:56:00,
2013-08-15 15:01:00,70.0,58.5,30.16,SSW,202,6.0,9.0,67,0.00,,BKN050,0.00,297.00,VWS V14.01,2013-08-15 20:01:00,
2013-08-15 15:06:00,70.4,58.1,30.16,SW,234,4.0,7.0,65,0.00,,BKN050,0.00,459.00,VWS V14.01,2013-08-15 20:06:00,
2013-08-15 15:12:00,71.3,58.9,30.15,SSW,197,7.0,8.0,65,0.00,,BKN050,0.00,979.00,VWS V14.01,2013-08-15 20:12:00,
2013-08-15 15:17:00,72.9,59.6,30.15,SW,225,7.0,10.0,63,0.00,,BKN050,0.00,933.00,VWS V14.01,2013-08-15 20:17:00,
2013-08-15 15:22:00,71.6,58.3,30.15,SSW,212,3.0,5.0,63,0.00,,BKN050,0.00,951.00,VWS V14.01,2013-08-15 20:22:00,
2013-08-15 15:27:00,71.4,57.7,30.15,SW,222,4.0,8.0,62,0.00,,BKN050,0.00,425.00,VWS V14.01,2013-08-15 20:27:00,
2013-08-15 15:32:00,71.7,59.3,30.15,South,174,1.0,5.0,65,0.00,,BKN050,0.00,468.00,VWS V14.01,2013-08-15 20:32:00,
2013-08-15 15:38:00,71.3,58.1,30.15,SW,217,5.0,7.0,63,0.00,,BKN050,0.00,418.00,VWS V14.01,2013-08-15 20:38:00,
2013-08-15 15:43:00,70.3,58.0,30.15,SW,224,5.0,7.0,65,0.00,,BKN050,0.00,399.00,VWS V14.01,2013-08-15 20:43:00,
2013-08-15 15:48:00,70.8,58.9,30.15,SW,218,1.0,4.0,66,0.00,,BKN050,0.00,353.00,VWS V14.01,2013-08-15 20:48:00,
2013-08-15 15:53:00,70.7,58.4,30.15,South,182,0.0,5.0,65,0.00,,BKN060,0.00,323.00,VWS V14.01,2013-08-15 20:53:00,
2013-08-15 15:58:00,70.5,57.8,30.15,SW,232,2.0,4.0,64,0.00,,BKN060,0.00,297.00,VWS V14.01,2013-08-15 20:58:00,
2013-08-15 16:03:00,70.1,58.7,30.15,SSW,202,5.0,5.0,67,0.00,,BKN060,0.00,285.00,VWS V14.01,2013-08-15 21:03:00,
2013-08-15 16:08:00,70.1,58.7,30.14,South,182,3.0,4.0,67,0.00,,BKN060,0.00,271.00,VWS V14.01,2013-08-15 21:08:00,
2013-08-15 16:13:00,70.4,58.1,30.14,South,181,1.0,3.0,65,0.00,,BKN060,0.00,287.00,VWS V14.01,2013-08-15 21:13:00,
2013-08-15 16:18:00,70.5,57.8,30.14,South,187,3.0,4.0,64,0.00,,BKN060,0.00,308.00,VWS V14.01,2013-08-15 21:18:00,
2013-08-15 16:23:00,70.4,58.5,30.14,SSW,207,4.0,4.0,66,0.00,,BKN060,0.00,255.00,VWS V14.01,2013-08-15 21:23:00,
2013-08-15 16:28:00,69.9,57.6,30.14,SSW,195,0.0,1.0,65,0.00,,BKN060,0.00,281.00,VWS V14.01,2013-08-15 21:28:00,
2013-08-15 16:34:00,70.3,58.0,30.14,South,184,3.0,5.0,65,0.00,,BKN060,0.00,469.00,VWS V14.01,2013-08-15 21:34:00,
2013-08-15 16:39:00,70.7,57.5,30.14,South,170,3.0,4.0,63,0.00,,BKN060,0.00,592.00,VWS V14.01,2013-08-15 21:39:00,
2013-08-15 16:44:00,71.8,59.0,30.14,South,169,3.0,4.0,64,0.00,,BKN060,0.00,571.00,VWS V14.01,2013-08-15 21:44:00,
2013-08-15 16:49:00,72.7,58.9,30.14,SW,220,4.0,7.0,62,0.00,,BKN060,0.00,559.00,VWS V14.01,2013-08-15 21:49:00,
2013-08-15 16:54:00,72.7,59.4,30.14,ESE,123,4.0,4.0,63,0.00,,SCT060,0.00,571.00,VWS V14.01,2013-08-15 21:54:00,
2013-08-15 16:59:00,72.3,57.7,30.14,South,172,3.0,4.0,60,0.00,,SCT060,0.00,570.00,VWS V14.01,2013-08-15 21:59:00,
2013-08-15 17:04:00,73.4,59.2,30.14,SSW,193,6.0,10.0,61,0.00,,SCT060,0.00,707.00,VWS V14.01,2013-08-15 22:04:00,
2013-08-15 17:09:00,74.1,58.9,30.14,SE,128,5.0,7.0,59,0.00,,SCT060,0.00,719.00,VWS V14.01,2013-08-15 22:09:00,
2013-08-15 17:14:00,73.4,57.7,30.14,SSW,195,4.0,6.0,58,0.00,,SCT060,0.00,350.00,VWS V14.01,2013-08-15 22:14:00,
2013-08-15 17:19:00,72.4,58.2,30.14,South,172,2.0,5.0,61,0.00,,SCT060,0.00,327.00,VWS V14.01,2013-08-15 22:19:00,
2013-08-15 17:24:00,72.3,57.7,30.14,SSE,156,5.0,7.0,60,0.00,,SCT060,0.00,329.00,VWS V14.01,2013-08-15 22:24:00,
2013-08-15 17:29:00,71.7,57.1,30.14,South,173,0.0,3.0,60,0.00,,SCT060,0.00,248.00,VWS V14.01,2013-08-15 22:29:00,
2013-08-15 17:34:00,71.7,57.1,30.14,SSE,155,2.0,3.0,60,0.00,,SCT060,0.00,241.00,VWS V14.01,2013-08-15 22:34:00,
2013-08-15 17:39:00,71.3,56.7,30.14,SSE,148,3.0,4.0,60,0.00,,SCT060,0.00,258.00,VWS V14.01,2013-08-15 22:39:00,
2013-08-15 17:45:00,70.9,55.9,30.14,ESE,120,3.0,3.0,59,0.00,,SCT060,0.00,285.00,VWS V14.01,2013-08-15 22:45:00,
2013-08-15 17:50:00,71.0,56.0,30.14,ESE,120,2.0,4.0,59,0.00,,SCT060,0.00,229.00,VWS V14.01,2013-08-15 22:50:00,
2013-08-15 17:55:00,71.3,56.7,30.14,SE,140,2.0,3.0,60,0.00,,BKN060,0.00,192.00,VWS V14.01,2013-08-15 22:55:00,
2013-08-15 18:00:00,71.2,56.6,30.14,ESE,123,2.0,2.0,60,0.00,,BKN060,0.00,178.00,VWS V14.01,2013-08-15 23:00:00,
2013-08-15 18:05:00,71.2,56.6,30.14,SE,139,1.0,4.0,60,0.00,,BKN060,0.00,188.00,VWS V14.01,2013-08-15 23:05:00,
2013-08-15 18:10:00,71.3,56.2,30.14,SE,141,1.0,3.0,59,0.00,,BKN060,0.00,186.00,VWS V14.01,2013-08-15 23:10:00,
2013-08-15 18:15:00,71.3,56.2,30.14,SSE,149,2.0,4.0,59,0.00,,BKN060,0.00,188.00,VWS V14.01,2013-08-15 23:15:00,
2013-08-15 18:20:00,71.3,56.2,30.14,SSE,164,2.0,3.0,59,0.00,,BKN060,0.00,160.00,VWS V14.01,2013-08-15 23:20:00,
2013-08-15 18:25:00,71.1,56.5,30.14,SSE,168,2.0,9.0,60,0.00,,BKN060,0.00,139.00,VWS V14.01,2013-08-15 23:25:00,
2013-08-15 18:35:00,71.1,56.1,30.14,South,172,3.0,9.0,59,0.00,,BKN060,0.00,139.00,VWS V14.01,2013-08-15 23:35:00,
2013-08-15 18:40:00,70.6,56.5,30.14,SE,125,1.0,2.0,61,0.00,,BKN060,0.00,105.00,VWS V14.01,2013-08-15 23:40:00,
2013-08-15 18:45:00,70.3,56.2,30.13,SE,137,0.0,2.0,61,0.00,,BKN060,0.00,86.00,VWS V14.01,2013-08-15 23:45:00,
2013-08-15 18:50:00,70.1,56.5,30.13,SE,125,2.0,2.0,62,0.00,,BKN060,0.00,77.00,VWS V14.01,2013-08-15 23:50:00,
2013-08-15 18:55:00,69.8,56.2,30.13,SSE,148,2.0,3.0,62,0.00,,BKN060,0.00,72.00,VWS V14.01,2013-08-15 23:55:00,
2013-08-15 19:00:00,69.5,57.2,30.13,SSE,148,1.0,2.0,65,0.00,,BKN060,0.00,67.00,VWS V14.01,2013-08-16 00:00:00,
2013-08-15 19:06:00,69.2,57.0,30.13,SSE,148,0.0,1.0,65,0.00,,BKN060,0.00,63.00,VWS V14.01,2013-08-16 00:06:00,
2013-08-15 19:11:00,68.9,57.1,30.13,SE,129,0.0,2.0,66,0.00,,BKN060,0.00,60.00,VWS V14.01,2013-08-16 00:11:00,
2013-08-15 19:16:00,68.9,57.1,30.13,ESE,112,1.0,3.0,66,0.00,,BKN060,0.00,56.00,VWS V14.01,2013-08-16 00:16:00,
2013-08-15 19:21:00,68.8,57.0,30.13,East,90,2.0,3.0,66,0.00,,BKN060,0.00,53.00,VWS V14.01,2013-08-16 00:21:00,
2013-08-15 19:26:00,68.5,57.1,30.13,East,93,0.0,2.0,67,0.00,,BKN060,0.00,47.00,VWS V14.01,2013-08-16 00:26:00,
2013-08-15 19:31:00,68.1,57.6,30.13,East,93,0.0,1.0,69,0.00,,BKN060,0.00,39.00,VWS V14.01,2013-08-16 00:31:00,
2013-08-15 19:36:00,67.8,57.7,30.13,East,93,0.0,0.0,70,0.00,,BKN060,0.00,33.00,VWS V14.01,2013-08-16 00:36:00,
2013-08-15 19:41:00,67.4,57.3,30.14,WSW,249,3.0,5.0,70,0.00,,SCT060,0.00,32.00,VWS V14.01,2013-08-16 00:41:00,
2013-08-15 19:46:00,67.0,57.3,30.14,WSW,251,0.0,1.0,71,0.00,,SCT060,0.00,26.00,VWS V14.01,2013-08-16 00:46:00,
2013-08-15 19:51:00,66.6,57.3,30.14,WSW,251,0.0,0.0,72,0.00,,SCT060,0.00,19.00,VWS V14.01,2013-08-16 00:51:00,
2013-08-15 19:56:00,66.0,57.5,30.14,WSW,251,2.0,2.0,74,0.00,,SCT060,0.00,14.00,VWS V14.01,2013-08-16 00:56:00,
2013-08-15 20:01:00,65.4,56.9,30.14,SW,231,0.0,1.0,74,0.00,,SCT060,0.00,9.00,VWS V14.01,2013-08-16 01:01:00,
2013-08-15 20:06:00,65.4,56.9,30.15,SW,236,1.0,2.0,74,0.00,,SCT060,0.00,5.00,VWS V14.01,2013-08-16 01:06:00,
2013-08-15 20:11:00,65.4,56.9,30.15,SW,236,0.0,0.0,74,0.00,,SCT060,0.00,0.00,VWS V14.01,2013-08-16 01:11:00,
2013-08-15 20:17:00,65.1,56.6,30.15,SW,236,0.0,0.0,74,0.00,,SCT060,0.00,0.00,VWS V14.01,2013-08-16 01:17:00,
2013-08-15 20:22:00,64.7,56.6,30.15,SW,236,0.0,0.0,75,0.00,,SCT060,0.00,0.00,VWS V14.01,2013-08-16 01:22:00,
2013-08-15 20:27:00,64.4,56.7,30.15,SW,236,0.0,1.0,76,0.00,,SCT060,0.00,0.00,VWS V14.01,2013-08-16 01:27:00,
2013-08-15 20:32:00,64.1,56.4,30.15,SW,236,0.0,1.0,76,0.00,,SCT060,0.00,0.00,VWS V14.01,2013-08-16 01:32:00,
2013-08-15 20:37:00,64.0,56.7,30.16,SW,236,2.0,2.0,77,0.00,,SCT060,0.00,0.00,VWS V14.01,2013-08-16 01:37:00,
2013-08-15 20:42:00,64.2,56.5,30.16,SW,236,0.0,1.0,76,0.00,,CLR,0.00,0.00,VWS V14.01,2013-08-16 01:42:00,
2013-08-15 20:47:00,64.0,56.7,30.16,SW,236,0.0,0.0,77,0.00,,CLR,0.00,0.00,VWS V14.01,2013-08-16 01:47:00,
2013-08-15 20:52:00,63.5,56.2,30.17,SW,236,0.0,1.0,77,0.00,,CLR,0.00,0.00,VWS V14.01,2013-08-16 01:52:00,
2013-08-15 20:57:00,62.9,56.3,30.17,SW,236,0.0,1.0,79,0.00,,CLR,0.00,0.00,VWS V14.01,2013-08-16 01:57:00,
2013-08-15 21:02:00,62.5,55.9,30.17,SW,236,0.0,0.0,79,0.00,,CLR,0.00,0.00,VWS V14.01,2013-08-16 02:02:00,
2013-08-15 21:07:00,62.3,56.1,30.17,SW,236,0.0,0.0,80,0.00,,CLR,0.00,0.00,VWS V14.01,2013-08-16 02:07:00,
2013-08-15 21:12:00,62.2,56.0,30.17,SW,236,0.0,0.0,80,0.00,,CLR,0.00,0.00,VWS V14.01,2013-08-16 02:12:00,
2013-08-15 21:17:00,62.2,56.0,30.17,SW,236,3.0,3.0,80,0.00,,CLR,0.00,0.00,VWS V14.01,2013-08-16 02:17:00,
2013-08-15 21:22:00,62.0,56.1,30.17,NE,34,2.0,3.0,81,0.00,,CLR,0.00,0.00,VWS V14.01,2013-08-16 02:22:00,
2013-08-15 21:27:00,61.6,55.7,30.17,NE,34,0.0,2.0,81,0.00,,CLR,0.00,0.00,VWS V14.01,2013-08-16 02:27:00,
2013-08-15 21:32:00,61.1,55.2,30.17,NE,34,0.0,0.0,81,0.00,,CLR,0.00,0.00,VWS V14.01,2013-08-16 02:32:00,
2013-08-15 21:37:00,60.8,55.3,30.17,NE,34,0.0,0.0,82,0.00,,CLR,0.00,0.00,VWS V14.01,2013-08-16 02:37:00,
2013-08-15 21:43:00,60.5,55.0,30.18,NE,34,0.0,0.0,82,0.00,,CLR,0.00,0.00,VWS V14.01,2013-08-16 02:43:00,
2013-08-15 21:48:00,60.0,55.2,30.18,NE,34,0.0,0.0,84,0.00,,CLR,0.00,0.00,VWS V14.01,2013-08-16 02:48:00,
2013-08-15 21:53:00,59.6,54.8,30.18,NE,34,0.0,0.0,84,0.00,,CLR,0.00,0.00,VWS V14.01,2013-08-16 02:53:00,
2013-08-15 21:58:00,59.0,54.2,30.18,NE,34,0.0,0.0,84,0.00,,CLR,0.00,0.00,VWS V14.01,2013-08-16 02:58:00,
2013-08-15 22:03:00,58.8,54.6,30.18,NE,34,0.0,0.0,86,0.00,,CLR,0.00,0.00,VWS V14.01,2013-08-16 03:03:00,
2013-08-15 22:08:00,58.6,54.4,30.18,NE,34,0.0,1.0,86,0.00,,CLR,0.00,0.00,VWS V14.01,2013-08-16 03:08:00,
2013-08-15 22:13:00,58.4,54.5,30.18,NE,34,0.0,0.0,87,0.00,,CLR,0.00,0.00,VWS V14.01,2013-08-16 03:13:00,
2013-08-15 22:18:00,58.4,54.5,30.18,NE,34,0.0,0.0,87,0.00,,CLR,0.00,0.00,VWS V14.01,2013-08-16 03:18:00,
2013-08-15 22:23:00,58.0,54.5,30.18,NE,34,0.0,0.0,88,0.00,,CLR,0.00,0.00,VWS V14.01,2013-08-16 03:23:00,
2013-08-15 22:28:00,57.9,54.4,30.18,NE,34,0.0,0.0,88,0.00,,CLR,0.00,0.00,VWS V14.01,2013-08-16 03:28:00,
2013-08-15 22:33:00,57.7,54.2,30.18,NE,34,0.0,0.0,88,0.00,,CLR,0.00,0.00,VWS V14.01,2013-08-16 03:33:00,
2013-08-15 22:38:00,57.7,54.5,30.18,NE,34,0.0,0.0,89,0.00,,CLR,0.00,0.00,VWS V14.01,2013-08-16 03:38:00,
2013-08-15 22:43:00,57.7,54.5,30.18,NE,34,1.0,2.0,89,0.00,,CLR,0.00,0.00,VWS V14.01,2013-08-16 03:43:00,
2013-08-15 22:48:00,57.5,54.3,30.18,NE,34,0.0,0.0,89,0.00,,CLR,0.00,0.00,VWS V14.01,2013-08-16 03:48:00,
2013-08-15 22:53:00,57.2,54.0,30.18,NE,34,0.0,0.0,89,0.00,,CLR,0.00,0.00,VWS V14.01,2013-08-16 03:53:00,
2013-08-15 22:58:00,56.9,53.7,30.18,NE,34,0.0,0.0,89,0.00,,CLR,0.00,0.00,VWS V14.01,2013-08-16 03:58:00,
2013-08-15 23:01:00,56.9,54.0,30.18,NE,34,0.0,0.0,90,0.00,,CLR,0.00,0.00,VWS V14.01,2013-08-16 04:01:00,
2013-08-15 23:06:00,56.8,53.9,30.18,NE,34,0.0,0.0,90,0.00,,CLR,0.00,0.00,VWS V14.01,2013-08-16 04:06:00,
2013-08-15 23:11:00,56.8,53.9,30.18,NE,34,0.0,0.0,90,0.00,,CLR,0.00,0.00,VWS V14.01,2013-08-16 04:11:00,
2013-08-15 23:16:00,56.7,53.8,30.18,NE,34,0.0,1.0,90,0.00,,CLR,0.00,0.00,VWS V14.01,2013-08-16 04:16:00,
2013-08-15 23:21:00,56.6,53.7,30.18,NE,34,0.0,0.0,90,0.00,,CLR,0.00,0.00,VWS V14.01,2013-08-16 04:21:00,
2013-08-15 23:26:00,56.7,53.8,30.18,NE,34,0.0,0.0,90,0.00,,CLR,0.00,0.00,VWS V14.01,2013-08-16 04:26:00,
2013-08-15 23:31:00,56.7,53.8,30.18,NE,34,0.0,0.0,90,0.00,,CLR,0.00,0.00,VWS V14.01,2013-08-16 04:31:00,
2013-08-15 23:36:00,56.7,53.8,30.18,NE,34,0.0,0.0,90,0.00,,CLR,0.00,0.00,VWS V14.01,2013-08-16 04:36:00,
2013-08-15 23:41:00,56.5,53.6,30.18,NE,34,0.0,0.0,90,0.00,,CLR,0.00,0.00,VWS V14.01,2013-08-16 04:41:00,
2013-08-15 23:46:00,56.2,53.3,30.18,NE,34,0.0,0.0,90,0.00,,CLR,0.00,0.00,VWS V14.01,2013-08-16 04:46:00,
2013-08-15 23:51:00,55.8,52.9,30.18,NE,34,0.0,0.0,90,0.00,,CLR,0.00,0.00,VWS V14.01,2013-08-16 04:51:00,
2013-08-15 23:56:00,55.5,52.6,30.18,NE,34,0.0,0.0,90,0.00,,CLR,0.00,0.00,VWS V14.01,2013-08-16 04:56:00,